Location: Peach Mountain Observatory
(42.3967°N, 83.9367°W)
Time: 19:48:54
(UTC-05:00)

Explorer 7 - Pass Details

Date: 25 January 2020
Orbit: 485 x 679 km, 50.3° (Epoch: 27 February)

Event Time Altitude Azimuth Distance (km) Brightness Sun altitude
Exits shadow 06:44:21 13° 240° (WSW) 1,624 8.8 -13.3°
Maximum altitude 06:45:05 13° 228° (SW) 1,604 8.9 -13.2°
Drops below altitude 10° 06:47:03 10° 200° (SSW) 1,822 9.4 -12.9°
Sets 06:50:23 0° 173° (S) 2,763 10.7 -12.3°
